Time,TemperatureF,DewpointF,PressureIn,WindDirection,WindDirectionDegrees,WindSpeedMPH,WindSpeedGustMPH,Humidity,HourlyPrecipIn,Conditions,Clouds,dailyrainin,SoftwareType,DateUTC
2013-01-12 00:03:00,50.0,47.0,29.85,SSE,165,5.0,8.0,91,0.00,,,0.60,,2013-01-12 05:03:00,
2013-01-12 00:12:00,50.0,47.0,29.85,SSE,165,5.0,8.0,91,0.00,,,0.60,,2013-01-12 05:12:00,
2013-01-12 00:22:00,49.0,46.0,29.85,SSW,195,5.0,8.0,91,0.00,,,0.60,,2013-01-12 05:22:00,
2013-01-12 00:32:00,50.0,47.0,29.84,SSW,193,6.0,9.0,91,0.00,,,0.59,,2013-01-12 05:32:00,
2013-01-12 00:42:00,50.0,47.0,29.84,SSW,193,6.0,9.0,91,0.00,,,0.59,,2013-01-12 05:42:00,
2013-01-12 00:53:00,50.0,47.0,29.83,South,190,7.0,11.0,90,0.00,,,0.59,,2013-01-12 05:53:00,
2013-01-12 01:02:00,50.0,47.0,29.83,SSW,211,8.0,13.0,89,0.00,,,0.59,,2013-01-12 06:02:00,
2013-01-12 01:12:00,50.0,47.0,29.83,SSW,211,8.0,13.0,89,0.00,,,0.59,,2013-01-12 06:12:00,
2013-01-12 01:22:00,50.0,47.0,29.83,SSW,211,5.0,12.0,89,0.00,,,0.59,,2013-01-12 06:22:00,
2013-01-12 01:33:00,50.0,47.0,29.83,South,190,7.0,11.0,89,0.00,,,0.47,,2013-01-12 06:33:00,
2013-01-12 01:43:00,50.0,47.0,29.83,South,190,7.0,11.0,89,0.00,,,0.47,,2013-01-12 06:43:00,
2013-01-12 01:53:00,50.0,47.0,29.83,SW,214,5.0,11.0,88,0.00,,,0.47,,2013-01-12 06:53:00,
2013-01-12 02:02:00,51.0,47.0,29.83,SW,222,7.0,10.0,87,0.00,,,0.47,,2013-01-12 07:02:00,
2013-01-12 02:12:00,51.0,47.0,29.83,SW,222,7.0,10.0,87,0.00,,,0.47,,2013-01-12 07:12:00,
2013-01-12 02:22:00,52.0,48.0,29.83,SW,224,5.0,11.0,85,0.00,,,0.47,,2013-01-12 07:22:00,
2013-01-12 02:32:00,52.0,48.0,29.84,SSW,212,6.0,11.0,85,0.00,,,0.46,,2013-01-12 07:32:00,
2013-01-12 02:42:00,52.0,48.0,29.84,SSW,212,6.0,11.0,85,0.00,,,0.46,,2013-01-12 07:42:00,
2013-01-12 02:53:00,52.0,47.0,29.85,SSW,204,6.0,10.0,84,0.00,,,0.46,,2013-01-12 07:53:00,
2013-01-12 03:02:00,52.0,48.0,29.86,SSW,200,5.0,8.0,85,0.00,,,0.46,,2013-01-12 08:02:00,
2013-01-12 03:12:00,52.0,48.0,29.86,SSW,200,5.0,8.0,85,0.00,,,0.46,,2013-01-12 08:12:00,
2013-01-12 03:22:00,51.0,47.0,29.86,South,183,5.0,8.0,86,0.00,,,0.46,,2013-01-12 08:22:00,
2013-01-12 03:32:00,49.0,45.0,29.86,South,170,5.0,9.0,87,0.00,,,0.45,,2013-01-12 08:32:00,
2013-01-12 03:42:00,49.0,45.0,29.86,South,170,5.0,9.0,87,0.00,,,0.45,,2013-01-12 08:42:00,
2013-01-12 03:53:00,49.0,46.0,29.86,South,183,6.0,9.0,89,0.00,,,0.45,,2013-01-12 08:53:00,
2013-01-12 04:02:00,49.0,46.0,29.87,South,184,6.0,10.0,89,0.00,,,0.45,,2013-01-12 09:02:00,
2013-01-12 04:12:00,49.0,46.0,29.87,South,184,6.0,10.0,89,0.00,,,0.45,,2013-01-12 09:12:00,
2013-01-12 04:22:00,48.0,45.0,29.87,South,174,5.0,10.0,89,0.00,,,0.45,,2013-01-12 09:22:00,
2013-01-12 04:32:00,48.0,45.0,29.87,South,174,5.0,10.0,89,0.00,,,0.45,,2013-01-12 09:32:00,
2013-01-12 04:42:00,48.0,45.0,29.87,South,174,5.0,10.0,89,0.00,,,0.45,,2013-01-12 09:42:00,
2013-01-12 04:53:00,47.0,45.0,29.86,SSE,165,4.0,6.0,92,0.00,,,0.45,,2013-01-12 09:53:00,
2013-01-12 05:02:00,47.0,45.0,29.86,South,184,4.0,7.0,92,0.00,,,0.45,,2013-01-12 10:02:00,
2013-01-12 05:12:00,47.0,45.0,29.86,South,184,4.0,7.0,92,0.00,,,0.45,,2013-01-12 10:12:00,
2013-01-12 05:22:00,47.0,45.0,29.85,South,188,3.0,6.0,92,0.00,,,0.45,,2013-01-12 10:22:00,
2013-01-12 05:32:00,47.0,45.0,29.85,South,188,5.0,8.0,93,0.00,,,0.45,,2013-01-12 10:32:00,
2013-01-12 05:42:00,47.0,45.0,29.85,South,188,5.0,8.0,93,0.00,,,0.45,,2013-01-12 10:42:00,
2013-01-12 05:52:00,47.0,45.0,29.85,SSW,203,3.0,8.0,92,0.00,,,0.45,,2013-01-12 10:52:00,
2013-01-12 06:02:00,47.0,45.0,29.85,South,173,4.0,8.0,93,0.00,,,0.45,,2013-01-12 11:02:00,
2013-01-12 06:12:00,47.0,45.0,29.85,South,173,4.0,8.0,93,0.00,,,0.45,,2013-01-12 11:12:00,
2013-01-12 06:22:00,46.0,44.0,29.86,South,179,4.0,8.0,93,0.00,,,0.45,,2013-01-12 11:22:00,
2013-01-12 06:33:00,46.0,44.0,29.86,South,181,5.0,8.0,93,0.00,,,0.40,,2013-01-12 11:33:00,
2013-01-12 06:42:00,46.0,44.0,29.86,South,181,5.0,8.0,93,0.00,,,0.40,,2013-01-12 11:42:00,
2013-01-12 06:53:00,47.0,46.0,29.86,SW,214,6.0,10.0,95,0.00,,,0.40,,2013-01-12 11:53:00,
2013-01-12 07:03:00,48.0,46.0,29.87,SSW,194,8.0,13.0,94,0.00,,,0.40,,2013-01-12 12:03:00,
2013-01-12 07:12:00,48.0,46.0,29.87,SSW,194,8.0,13.0,94,0.00,,,0.40,,2013-01-12 12:12:00,
2013-01-12 07:22:00,48.0,46.0,29.88,South,188,7.0,11.0,93,0.00,,,0.40,,2013-01-12 12:22:00,
2013-01-12 07:33:00,48.0,46.0,29.88,South,174,6.0,9.0,94,0.00,,,0.05,,2013-01-12 12:33:00,
2013-01-12 07:43:00,48.0,46.0,29.88,South,174,6.0,9.0,94,0.00,,,0.05,,2013-01-12 12:43:00,
2013-01-12 07:53:00,48.0,46.0,29.88,South,186,6.0,10.0,94,0.00,,,0.05,,2013-01-12 12:53:00,
2013-01-12 08:02:00,48.0,46.0,29.89,South,186,6.0,11.0,94,0.00,,,0.05,,2013-01-12 13:02:00,
2013-01-12 08:12:00,48.0,46.0,29.89,South,186,6.0,11.0,94,0.00,,,0.05,,2013-01-12 13:12:00,
2013-01-12 08:23:00,48.0,47.0,29.90,SSW,197,5.0,7.0,95,0.00,,,0.05,,2013-01-12 13:23:00,
2013-01-12 08:33:00,49.0,48.0,29.91,SSW,206,5.0,7.0,95,0.00,,,0.03,,2013-01-12 13:33:00,
2013-01-12 08:43:00,49.0,48.0,29.91,SSW,206,5.0,7.0,95,0.00,,,0.03,,2013-01-12 13:43:00,
2013-01-12 08:53:00,49.0,48.0,29.91,SSW,208,4.0,6.0,95,0.00,,,0.03,,2013-01-12 13:53:00,
2013-01-12 09:02:00,50.0,49.0,29.92,SSW,212,4.0,6.0,95,0.00,,,0.03,,2013-01-12 14:02:00,
2013-01-12 09:12:00,50.0,49.0,29.92,SSW,212,4.0,6.0,95,0.00,,,0.03,,2013-01-12 14:12:00,
2013-01-12 09:22:00,51.0,49.0,29.92,SSW,207,4.0,6.0,94,0.00,,,0.03,,2013-01-12 14:22:00,
2013-01-12 09:33:00,51.0,49.0,29.93,SSW,212,4.0,8.0,93,0.00,,,0.01,,2013-01-12 14:33:00,
2013-01-12 09:43:00,51.0,49.0,29.93,SSW,212,4.0,8.0,93,0.00,,,0.01,,2013-01-12 14:43:00,
2013-01-12 09:53:00,51.0,49.0,29.93,SSW,203,5.0,8.0,93,0.00,,,0.01,,2013-01-12 14:53:00,
2013-01-12 10:03:00,52.0,50.0,29.94,SSE,153,5.0,9.0,93,0.00,,,0.01,,2013-01-12 15:03:00,
2013-01-12 10:13:00,52.0,50.0,29.94,SSE,153,5.0,9.0,93,0.00,,,0.01,,2013-01-12 15:13:00,
2013-01-12 10:23:00,52.0,50.0,29.94,South,187,5.0,9.0,93,0.00,,,0.01,,2013-01-12 15:23:00,
2013-01-12 10:33:00,52.0,50.0,29.95,South,169,5.0,8.0,93,0.00,,,0.01,,2013-01-12 15:33:00,
2013-01-12 10:43:00,52.0,50.0,29.95,South,169,5.0,8.0,93,0.00,,,0.01,,2013-01-12 15:43:00,
2013-01-12 10:53:00,53.0,51.0,29.95,South,184,6.0,8.0,93,0.00,,,0.01,,2013-01-12 15:53:00,
2013-01-12 11:03:00,53.0,51.0,29.94,South,170,6.0,9.0,93,0.00,,,0.01,,2013-01-12 16:03:00,
2013-01-12 11:12:00,53.0,51.0,29.94,South,170,6.0,9.0,93,0.00,,,0.01,,2013-01-12 16:12:00,
2013-01-12 11:23:00,54.0,52.0,29.93,South,191,6.0,11.0,92,0.00,,,0.01,,2013-01-12 16:23:00,
2013-01-12 11:33:00,55.0,53.0,29.93,SSW,201,8.0,13.0,92,0.00,,,0.01,,2013-01-12 16:33:00,
2013-01-12 11:43:00,55.0,53.0,29.93,SSW,201,8.0,13.0,92,0.00,,,0.01,,2013-01-12 16:43:00,
2013-01-12 11:53:00,56.0,53.0,29.92,SSW,200,7.0,13.0,91,0.00,,,0.01,,2013-01-12 16:53:00,
2013-01-12 12:02:00,56.0,53.0,29.92,SSW,200,7.0,13.0,91,0.00,,,0.01,,2013-01-12 17:02:00,
2013-01-12 12:12:00,56.0,53.0,29.92,SSW,200,7.0,13.0,91,0.00,,,0.01,,2013-01-12 17:12:00,
2013-01-12 12:23:00,56.0,53.0,29.92,SW,217,9.0,13.0,90,0.00,,,0.01,,2013-01-12 17:23:00,
2013-01-12 12:33:00,57.0,54.0,29.91,SW,222,8.0,13.0,90,0.00,,,0.01,,2013-01-12 17:33:00,
2013-01-12 12:43:00,57.0,54.0,29.91,SW,222,8.0,13.0,90,0.00,,,0.01,,2013-01-12 17:43:00,
2013-01-12 12:53:00,57.0,54.0,29.92,SW,231,9.0,13.0,90,0.00,,,0.01,,2013-01-12 17:53:00,
2013-01-12 13:03:00,57.0,54.0,29.92,SW,233,8.0,13.0,89,0.00,,,0.01,,2013-01-12 18:03:00,
2013-01-12 13:12:00,57.0,54.0,29.92,SW,233,8.0,13.0,89,0.00,,,0.01,,2013-01-12 18:12:00,
2013-01-12 13:23:00,58.0,55.0,29.91,SSE,167,8.0,12.0,89,0.00,,,0.01,,2013-01-12 18:23:00,
2013-01-12 13:33:00,58.0,54.0,29.91,SSW,194,9.0,13.0,87,0.00,,,0.01,,2013-01-12 18:33:00,
2013-01-12 13:43:00,58.0,54.0,29.91,SSW,194,9.0,13.0,87,0.00,,,0.01,,2013-01-12 18:43:00,
2013-01-12 13:53:00,59.0,55.0,29.91,SW,226,10.0,16.0,86,0.00,,,0.01,,2013-01-12 18:53:00,
2013-01-12 14:03:00,59.0,55.0,29.91,SW,225,12.0,17.0,86,0.00,,,0.01,,2013-01-12 19:03:00,
2013-01-12 14:12:00,59.0,55.0,29.91,SW,225,12.0,17.0,86,0.00,,,0.01,,2013-01-12 19:12:00,
2013-01-12 14:23:00,59.0,54.0,29.92,SW,219,13.0,17.0,85,0.00,,,0.00,,2013-01-12 19:23:00,
2013-01-12 14:33:00,59.0,55.0,29.92,WSW,241,10.0,13.0,86,0.00,,,0.00,,2013-01-12 19:33:00,
2013-01-12 14:43:00,59.0,55.0,29.92,WSW,241,10.0,13.0,86,0.00,,,0.00,,2013-01-12 19:43:00,
2013-01-12 14:53:00,59.0,55.0,29.92,SW,225,11.0,15.0,86,0.00,,,0.00,,2013-01-12 19:53:00,
2013-01-12 15:03:00,59.0,54.0,29.93,SSW,212,11.0,15.0,85,0.00,,,0.00,,2013-01-12 20:03:00,
2013-01-12 15:12:00,59.0,54.0,29.93,SSW,212,11.0,15.0,85,0.00,,,0.00,,2013-01-12 20:12:00,
2013-01-12 15:22:00,60.0,55.0,29.93,SW,215,9.0,14.0,85,0.00,,,0.00,,2013-01-12 20:22:00,
2013-01-12 15:33:00,60.0,55.0,29.93,SW,231,9.0,13.0,83,0.00,,,0.00,,2013-01-12 20:33:00,
2013-01-12 15:42:00,60.0,55.0,29.93,SW,231,9.0,13.0,83,0.00,,,0.00,,2013-01-12 20:42:00,
2013-01-12 15:53:00,60.0,55.0,29.93,SSW,203,6.0,13.0,83,0.00,,,0.00,,2013-01-12 20:53:00,
2013-01-12 16:03:00,60.0,55.0,29.92,SW,235,6.0,12.0,83,0.00,,,0.00,,2013-01-12 21:03:00,
2013-01-12 16:12:00,60.0,55.0,29.92,SW,235,6.0,12.0,83,0.00,,,0.00,,2013-01-12 21:12:00,
2013-01-12 16:22:00,59.0,54.0,29.92,SSW,197,2.0,6.0,84,0.00,,,0.00,,2013-01-12 21:22:00,
2013-01-12 16:33:00,59.0,54.0,29.92,SSW,193,3.0,5.0,85,0.00,,,0.00,,2013-01-12 21:33:00,
2013-01-12 16:43:00,59.0,54.0,29.92,SSW,193,3.0,5.0,85,0.00,,,0.00,,2013-01-12 21:43:00,
2013-01-12 16:53:00,59.0,55.0,29.91,SSE,166,2.0,7.0,86,0.00,,,0.00,,2013-01-12 21:53:00,
2013-01-12 17:03:00,58.0,54.0,29.92,South,170,1.0,3.0,88,0.00,,,0.00,,2013-01-12 22:03:00,
2013-01-12 17:12:00,58.0,54.0,29.92,South,170,1.0,3.0,88,0.00,,,0.00,,2013-01-12 22:12:00,
2013-01-12 17:23:00,57.0,54.0,29.91,SSW,193,0.0,3.0,89,0.00,,,0.00,,2013-01-12 22:23:00,
2013-01-12 17:33:00,57.0,54.0,29.91,SSW,193,0.0,1.0,90,0.00,,,0.00,,2013-01-12 22:33:00,
2013-01-12 17:43:00,57.0,54.0,29.91,SSW,193,0.0,1.0,90,0.00,,,0.00,,2013-01-12 22:43:00,
2013-01-12 17:53:00,56.0,53.0,29.90,SSW,193,0.0,1.0,91,0.00,,,0.00,,2013-01-12 22:53:00,
2013-01-12 18:03:00,56.0,54.0,29.89,SE,139,0.0,1.0,92,0.00,,,0.00,,2013-01-12 23:03:00,
2013-01-12 18:13:00,56.0,54.0,29.89,SE,139,0.0,1.0,92,0.00,,,0.00,,2013-01-12 23:13:00,
2013-01-12 18:23:00,56.0,54.0,29.89,SE,139,0.0,1.0,92,0.00,,,0.00,,2013-01-12 23:23:00,
2013-01-12 18:33:00,55.0,53.0,29.90,SE,139,0.0,0.0,93,0.00,,,0.00,,2013-01-12 23:33:00,
2013-01-12 18:43:00,55.0,53.0,29.90,SE,139,0.0,0.0,93,0.00,,,0.00,,2013-01-12 23:43:00,
2013-01-12 18:53:00,54.0,52.0,29.89,SE,139,0.0,2.0,93,0.00,,,0.00,,2013-01-12 23:53:00,
2013-01-12 19:03:00,53.0,52.0,29.89,SE,140,0.0,1.0,96,0.00,,,0.00,,2013-01-13 00:03:00,
2013-01-12 19:12:00,53.0,52.0,29.89,SE,140,0.0,1.0,96,0.00,,,0.00,,2013-01-13 00:12:00,
2013-01-12 19:23:00,54.0,53.0,29.88,East,98,0.0,2.0,95,0.00,,,0.00,,2013-01-13 00:23:00,
2013-01-12 19:33:00,54.0,53.0,29.87,ESE,113,0.0,1.0,95,0.00,,,0.00,,2013-01-13 00:33:00,
2013-01-12 19:43:00,54.0,53.0,29.87,ESE,113,0.0,1.0,95,0.00,,,0.00,,2013-01-13 00:43:00,
2013-01-12 19:53:00,53.0,51.0,29.87,SE,126,1.0,1.0,93,0.00,,,0.00,,2013-01-13 00:53:00,
2013-01-12 20:03:00,53.0,51.0,29.87,ESE,109,0.0,1.0,94,0.00,,,0.00,,2013-01-13 01:03:00,
2013-01-12 20:12:00,53.0,51.0,29.87,ESE,109,0.0,1.0,94,0.00,,,0.00,,2013-01-13 01:12:00,
2013-01-12 20:23:00,53.0,52.0,29.86,ESE,109,1.0,1.0,95,0.00,,,0.00,,2013-01-13 01:23:00,
2013-01-12 20:33:00,52.0,51.0,29.85,NE,39,0.0,2.0,96,0.00,,,0.00,,2013-01-13 01:33:00,
2013-01-12 20:43:00,52.0,51.0,29.85,NE,39,0.0,2.0,96,0.00,,,0.00,,2013-01-13 01:43:00,
2013-01-12 20:53:00,52.0,51.0,29.84,NE,39,1.0,2.0,96,0.00,,,0.00,,2013-01-13 01:53:00,
2013-01-12 21:02:00,51.0,50.0,29.84,NE,40,0.0,1.0,96,0.00,,,0.00,,2013-01-13 02:02:00,
2013-01-12 21:13:00,51.0,50.0,29.84,NE,40,0.0,1.0,96,0.00,,,0.00,,2013-01-13 02:13:00,
2013-01-12 21:23:00,52.0,51.0,29.85,NE,40,0.0,1.0,96,0.00,,,0.00,,2013-01-13 02:23:00,
2013-01-12 21:33:00,52.0,51.0,29.85,NE,40,0.0,0.0,96,0.01,,,0.01,,2013-01-13 02:33:00,
2013-01-12 21:43:00,52.0,51.0,29.85,NE,40,0.0,0.0,96,0.01,,,0.01,,2013-01-13 02:43:00,
2013-01-12 21:53:00,51.0,50.0,29.84,NNE,16,1.0,2.0,96,0.08,,,0.08,,2013-01-13 02:53:00,
2013-01-12 22:02:00,52.0,51.0,29.83,NNE,19,3.0,4.0,97,0.18,,,0.18,,2013-01-13 03:02:00,
2013-01-12 22:12:00,52.0,51.0,29.83,NNE,19,3.0,4.0,97,0.18,,,0.18,,2013-01-13 03:12:00,
2013-01-12 22:22:00,52.0,51.0,29.83,NE,36,1.0,2.0,97,0.23,,,0.23,,2013-01-13 03:22:00,
2013-01-12 22:33:00,53.0,52.0,29.80,NE,41,4.0,5.0,98,0.27,,,0.28,,2013-01-13 03:33:00,
2013-01-12 22:43:00,53.0,52.0,29.80,NE,41,4.0,5.0,98,0.27,,,0.28,,2013-01-13 03:43:00,
2013-01-12 22:53:00,53.0,52.0,29.79,NE,41,2.0,5.0,98,0.25,,,0.33,,2013-01-13 03:53:00,
2013-01-12 23:02:00,53.0,52.0,29.77,NNE,29,4.0,6.0,98,0.22,,,0.40,,2013-01-13 04:02:00,
2013-01-12 23:12:00,53.0,52.0,29.77,NNE,29,4.0,6.0,98,0.22,,,0.40,,2013-01-13 04:12:00,
2013-01-12 23:22:00,53.0,52.0,29.76,NNE,30,4.0,6.0,98,0.22,,,0.46,,2013-01-13 04:22:00,
2013-01-12 23:33:00,53.0,52.0,29.74,ENE,63,5.0,12.0,98,0.24,,,0.52,,2013-01-13 04:33:00,
2013-01-12 23:43:00,53.0,52.0,29.74,ENE,63,5.0,12.0,98,0.24,,,0.52,,2013-01-13 04:43:00,
2013-01-12 23:53:00,53.0,52.0,29.73,NE,53,3.0,9.0,98,0.23,,,0.56,,2013-01-13 04:53:00,